Location: Moscow
(30.9132°N, 94.8252°W)
Time: 16:36:17
(UTC+00:00)

SJ-7 - Visible Passes

Search period start: 11 February 2026 00:00
Search period end: 21 February 2026 00:00
Orbit: 495 x 520 km, 97.7° (Epoch: 11 February)

Date Brightness Start Highest point End Pass type
(mag) Time Alt. Az. Time Alt. Az. Time Alt. Az.
11 Feb 6.4 01:44:32 10° SSW 01:47:40 26° W 01:50:49 10° NW visible
12 Feb 5.2 01:26:43 10° S 01:30:17 46° W 01:33:51 10° NNW visible
13 Feb 4.1 01:09:14 10° SSE 01:12:55 87° WSW 01:16:37 10° NNW visible
14 Feb 4.3 00:52:00 10° SSE 00:55:34 50° ENE 00:59:09 10° N visible
15 Feb 5.0 00:35:05 10° SE 00:38:15 28° ENE 00:41:25 10° NNE visible
15 Feb 7.5 02:10:30 10° WSW 02:12:06 12° W 02:13:42 10° WNW visible
16 Feb 6.8 01:51:44 10° SSW 01:54:36 21° W 01:57:28 10° NW visible
17 Feb 5.7 01:33:41 10° SSW 01:37:07 37° W 01:40:33 10° NNW visible
18 Feb 4.4 01:16:00 10° S 01:19:39 71° W 01:23:18 10° NNW visible
19 Feb 4.1 00:58:35 10° SSE 01:02:13 61° ENE 01:05:50 10° N visible
20 Feb 4.8 00:41:28 10° SE 00:44:47 33° ENE 00:48:06 10° N visible
20 Feb 7.7 02:18:21 10° W 02:18:41 10° W 02:19:02 10° W visible
